DW2217 Weather Reports


time (UTC)temp
C
wind
direction
speed
KPH
gust
KPH
rain 1hr
cm
rain 24hr
cm
rain mn
cm
humidity
%
barometer
mb
20260906120528 12 12 0.0 3.2 0.00 0.23 0.23 98 1015.6
20260906120026 12 12 0.0 3.2 0.00 0.23 0.23 98 1015.5
20260906115525 12 12 0.0 3.2 0.00 0.23 0.23 98 1015.5
20260906115020 12 12 0.0 3.2 0.00 0.23 0.23 98 1015.6
20260906114514 12 13 3.2 3.2 0.00 0.23 0.23 98 1015.4
20260906114010 12 13 3.2 3.2 0.00 0.23 0.23 98 1015.0
20260906113509 12 12 0.0 3.2 0.00 0.23 0.23 98 1015.4
20260906113005 12 10 3.2 3.2 0.00 0.23 0.23 98 1015.4
20260906112459 12 14 3.2 3.2 0.00 0.23 0.23 98 1015.3
20260906111955 12 15 0.0 3.2 0.00 0.23 0.23 98 1015.1
20260906111454 12 14 1.6 3.2 0.00 0.23 0.23 98 1015.1
20260906110949 12 15 0.0 3.2 0.00 0.23 0.23 98 1014.9
20260906110445 12 15 1.6 3.2 0.00 0.23 0.23 98 1015.2
20260906105944 12 15 0.0 0.0 0.00 0.23 0.23 98 1015.1
20260906105439 12 14 0.0 0.0 0.18 0.23 0.23 98 1014.9
20260906104935 12 15 0.0 3.2 0.00 0.20 0.20 98 1015.0
20260906104434 12 15 0.0 0.0 0.00 0.20 0.20 98 1014.9
20260906103928 12 14 0.0 3.2 0.00 0.20 0.20 98 1014.9
20260906103426 12 15 0.0 0.0 0.00 0.20 0.20 98 1015.0
20260906102922 12 14 0.0 0.0 0.00 0.20 0.20 98 1014.7
20260906102421 12 14 0.0 0.0 0.00 0.20 0.20 98 1014.7
20260906101916 12 14 0.0 3.2 0.13 0.20 0.20 98 1014.8
20260906101411 12 14 0.0 3.2 0.13 0.20 0.20 98 1014.9
20260906100906 12 13 3.2 3.2 0.00 0.18 0.18 98 1014.9
20260906100405 12 14 0.0 3.2 0.18 0.18 0.18 98 1014.8
20260906095901 12 15 1.6 3.2 0.18 0.18 0.18 98 1014.9
20260906095356 12 15 0.0 3.2 0.13 0.15 0.15 98 1014.8
20260906094856 12 56 0.0 3.2 0.13 0.15 0.15 98 1014.9
20260906094350 12 13 1.6 3.2 0.18 0.13 0.13 98 1014.9
20260906093841 12 13 0.0 0.0 0.18 0.13 0.13 98 1014.8
20260906093337 12 13 0.0 0.0 0.13 0.10 0.10 98 1014.8
20260906092831 12 13 0.0 0.0 0.00 0.08 0.08 98 1014.7
20260906092326 12 13 0.0 3.2 0.00 0.08 0.08 98 1014.7
20260906091821 13 13 0.0 0.0 0.18 0.08 0.08 98 1014.4
20260906091318 12 13 0.0 0.0 0.00 0.05 0.05 97 1014.4
20260906090814 12 13 0.0 0.0 0.13 0.05 0.05 97 1014.5
20260906090312 12 13 0.0 0.0 0.13 0.05 0.05 97 1014.5
20260906085807 12 14 0.0 0.0 0.18 0.03 0.03 97 1014.4
20260906085307 12 13 0.0 0.0 0.00 0.00 0.00 96 1014.3
20260906084800 12 13 0.0 0.0 0.00 0.00 0.00 97 1014.2
20260906084254 12 12 0.0 3.2 0.00 0.00 0.00 97 1014.2
20260906083749 12 12 1.6 3.2 0.00 0.00 0.00 97 1014.2
20260906083245 12 12 0.0 3.2 0.00 0.00 0.00 97 1014.2
20260906082739 12 12 1.6 3.2 0.00 0.00 0.00 97 1014.2
20260906082235 12 12 1.6 3.2 0.00 0.00 0.00 97 1014.2
20260906081731 12 12 0.0 0.0 0.00 0.00 0.00 97 1014.0
20260906081225 12 12 1.6 3.2 0.00 0.00 0.00 97 1014.2
20260906080721 12 12 0.0 0.0 0.00 0.00 0.00 97 1014.0
20260906080217 12 12 0.0 3.2 0.00 0.00 0.00 97 1014.0
20260906075712 12 12 0.0 0.0 0.00 0.00 0.00 97 1013.9
20260906075206 13 12 1.6 3.2 0.00 0.00 0.00 97 1013.9
20260906074702 13 12 1.6 3.2 0.00 0.00 0.00 97 1013.8
20260906074201 13 12 0.0 3.2 0.00 0.00 0.00 96 1013.9
20260906073656 13 12 0.0 3.2 0.00 0.00 0.00 96 1014.0
20260906073151 13 12 0.0 3.2 0.00 0.00 0.00 95 1014.0
20260906072646 13 12 0.0 3.2 0.00 0.00 0.00 95 1014.0
20260906072136 13 12 3.2 3.2 0.00 0.00 0.00 95 1014.2
20260906071632 13 12 0.0 0.0 0.00 0.00 0.00 95 1013.8
20260906071126 13 12 0.0 0.0 0.00 0.00 0.00 95 1013.9
20260906070623 13 12 0.0 0.0 0.00 0.00 0.00 95 1014.0
20260906070119 13 12 0.0 3.2 0.00 0.00 0.00 95 1014.0
20260906065618 13 12 1.6 3.2 0.00 0.00 0.00 94 1013.9
20260906065114 13 12 0.0 0.0 0.00 0.00 0.00 94 1014.0
20260906064609 13 12 0.0 0.0 0.00 0.00 0.00 95 1013.8
20260906064104 13 12 0.0 3.2 0.00 0.00 0.00 95 1013.7
20260906063559 13 12 0.0 0.0 0.00 0.00 0.00 95 1013.7
20260906063055 12 12 1.6 3.2 0.00 0.00 0.00 96 1013.9
20260906062551 13 12 0.0 3.2 0.00 0.00 0.00 96 1013.9
20260906062049 13 12 1.6 3.2 0.00 0.00 0.00 96 1013.7
20260906061546 13 12 1.6 3.2 0.00 0.00 0.00 95 1013.8
20260906061045 13 10 3.2 3.2 0.00 0.00 0.00 93 1013.7
20260906060542 13 13 0.0 0.0 0.00 0.00 0.00 92 1013.8
20260906060039 13 13 0.0 0.0 0.00 0.00 0.00 93 1013.6
20260906055535 13 13 0.0 0.0 0.00 0.00 0.00 93 1013.6
20260906055030 13 13 0.0 0.0 0.00 0.00 0.00 93 1013.7
20260906054530 13 13 0.0 3.2 0.00 0.00 0.00 92 1013.8
20260906054025 13 13 0.0 0.0 0.00 0.00 0.00 93 1013.8
20260906053521 13 13 0.0 0.0 0.00 0.00 0.00 93 1013.9
20260906053017 13 13 0.0 0.0 0.00 0.00 0.00 93 1014.0
20260906052512 13 13 0.0 0.0 0.00 0.00 0.00 93 1013.8
20260906052009 13 13 1.6 3.2 0.00 0.00 0.00 94 1013.9
20260906051504 12 13 0.0 3.2 0.00 0.00 0.00 96 1013.8
20260906051000 13 13 0.0 3.2 0.00 0.00 0.00 96 1013.9
20260906050459 12 13 1.6 3.2 0.00 0.00 0.00 96 1013.9
20260906045954 12 13 1.6 3.2 0.00 0.00 0.00 96 1013.8
20260906045453 13 13 1.6 3.2 0.00 0.00 0.00 96 1013.8
20260906044949 13 13 0.0 0.0 0.00 0.00 0.00 96 1013.8
20260906044444 13 13 0.0 3.2 0.00 0.00 0.00 95 1013.7
20260906043940 13 13 0.0 3.2 0.00 0.00 0.00 95 1013.9
20260906043435 13 12 1.6 3.2 0.00 0.00 0.00 94 1013.9
20260906042931 13 14 0.0 3.2 0.00 0.00 0.00 93 1013.8
20260906042430 13 14 0.0 0.0 0.00 0.00 0.00 92 1013.9
20260906041924 13 14 0.0 0.0 0.00 0.00 0.00 92 1013.7
20260906041421 13 14 0.0 3.2 0.00 0.00 0.00 92 1014.0
20260906040920 13 14 1.6 3.2 0.00 0.00 0.00 92 1014.0
20260906040416 13 14 0.0 3.2 0.00 0.00 0.00 92 1013.9
20260906035911 13 14 0.0 3.2 0.00 0.00 0.00 92 1013.9
20260906035406 13 14 0.0 0.0 0.00 0.00 0.00 93 1014.1
20260906034902 13 14 0.0 0.0 0.00 0.00 0.00 93 1013.8
20260906034356 13 14 0.0 0.0 0.00 0.00 0.00 93 1013.8
20260906033852 13 22 0.0 3.2 0.00 0.00 0.00 93 1013.8
20260906033351 13 22 0.0 3.2 0.00 0.00 0.00 93 1013.8
20260906032848 13 24 0.0 0.0 0.00 0.00 0.00 92 1013.8
20260906032343 13 23 0.0 3.2 0.00 0.00 0.00 92 1013.8
20260906031838 13 24 0.0 0.0 0.00 0.00 0.00 91 1013.6
20260906031334 13 23 0.0 3.2 0.00 0.00 0.00 91 1013.8
20260906030834 13 23 3.2 3.2 0.00 0.00 0.00 90 1013.7
20260906030329 14 24 0.0 3.2 0.00 0.00 0.00 89 1013.9
20260906025823 15 24 0.0 0.0 0.00 0.00 0.00 88 1013.7
20260906025317 15 24 0.0 0.0 0.00 0.00 0.00 86 1013.7
20260906024816 15 24 0.0 0.0 0.00 0.00 0.00 85 1013.7
20260906024315 15 24 0.0 0.0 0.00 0.00 0.00 86 1013.6
20260906023811 15 24 0.0 0.0 0.00 0.00 0.00 85 1013.6
20260906023306 15 24 0.0 0.0 0.00 0.00 0.00 86 1013.7
20260906022802 15 24 0.0 0.0 0.00 0.00 0.00 86 1013.5
20260906022257 15 24 0.0 3.2 0.00 0.00 0.00 85 1013.5
20260906021753 15 24 0.0 0.0 0.00 0.00 0.00 84 1013.5
20260906021252 15 24 0.0 3.2 0.00 0.00 0.00 85 1013.5
20260906020746 15 24 0.0 3.2 0.00 0.00 0.00 86 1013.5
20260906020241 15 24 0.0 3.2 0.00 0.00 0.00 85 1013.4
20260906015735 15 24 0.0 3.2 0.00 0.00 0.00 84 1013.5
20260906015234 15 24 0.0 0.0 0.00 0.00 0.00 82 1013.2
20260906014729 15 24 0.0 0.0 0.00 0.00 0.00 83 1013.4
20260906014225 15 24 0.0 0.0 0.00 0.00 0.00 84 1013.5
20260906013721 16 24 0.0 0.0 0.00 0.00 0.00 83 1013.6
20260906013220 16 24 1.6 3.2 0.00 0.00 0.00 82 1013.3
20260906012715 16 24 0.0 0.0 0.00 0.00 0.00 82 1013.2
20260906012210 16 23 1.6 3.2 0.00 0.00 0.00 83 1013.4
20260906011706 16 22 0.0 3.2 0.00 0.00 0.00 82 1013.4
20260906011200 16 21 0.0 3.2 0.00 0.00 0.00 82 1013.4
20260906010655 16 34 0.0 3.2 0.00 0.00 0.00 80 1013.4
20260906010152 16 34 0.0 3.2 0.00 0.00 0.00 81 1013.3
20260906005651 16 34 0.0 3.2 0.00 0.00 0.00 81 1013.4
20260906005150 16 34 0.0 3.2 0.00 0.00 0.00 80 1013.2
20260906004649 17 33 1.6 3.2 0.00 0.00 0.00 78 1013.3
20260906004145 17 34 0.0 0.0 0.00 0.00 0.00 77 1013.3
20260906003640 17 34 0.0 0.0 0.00 0.00 0.00 77 1013.0
20260906003135 17 34 0.0 0.0 0.00 0.00 0.00 76 1013.0
20260906002630 17 34 0.0 3.2 0.00 0.00 0.00 76 1012.9
20260906002125 17 34 0.0 0.0 0.00 0.00 0.00 76 1012.9
20260906001621 17 34 0.0 0.0 0.00 0.00 0.00 75 1013.1
20260906001120 17 34 0.0 0.0 0.00 0.00 0.00 75 1013.0
20260906000616 17 32 1.6 3.2 0.00 0.00 0.00 75 1013.1
20260906000112 17 30 1.6 3.2 0.00 0.00 0.00 75 1013.1
20260905235610 17 27 3.2 3.2 0.00 0.00 0.00 75 1013.1
20260905235106 17 36 0.0 3.2 0.00 0.00 0.00 74 1012.8
20260905234601 17 36 0.0 0.0 0.00 0.00 0.00 74 1012.9
20260905234056 17 36 0.0 0.0 0.00 0.00 0.00 74 1012.8
20260905233555 17 36 0.0 3.2 0.00 0.00 0.00 75 1012.9
20260905233050 17 36 0.0 0.0 0.00 0.00 0.00 74 1012.8
20260905232546 17 36 0.0 3.2 0.00 0.00 0.00 75 1012.6
20260905232041 18 36 0.0 0.0 0.00 0.00 0.00 75 1012.8
20260905231536 18 36 0.0 3.2 0.00 0.00 0.00 74 1012.8
20260905231033 18 53 0.0 0.0 0.00 0.00 0.00 75 1012.7
20260905230532 18 55 0.0 3.2 0.00 0.00 0.00 75 1012.7
20260905230031 18 59 0.0 4.8 0.00 0.00 0.00 73 1012.5
20260905225525 18 24 0.0 0.0 0.00 0.00 0.00 74 1012.7
20260905225021 18 24 0.0 0.0 0.00 0.00 0.00 74 1012.5
20260905224515 18 24 1.6 3.2 0.00 0.00 0.00 75 1012.5
20260905224015 18 31 0.0 3.2 0.00 0.00 0.00 75 1012.5
20260905223512 18 31 0.0 3.2 0.00 0.00 0.00 74 1012.4
20260905223007 18 32 0.0 0.0 0.00 0.00 0.00 74 1012.4
20260905222502 18 31 0.0 3.2 0.00 0.00 0.00 74 1012.3
20260905221957 18 31 0.0 0.0 0.00 0.00 0.00 74 1012.3
20260905221454 18 31 0.0 0.0 0.00 0.00 0.00 74 1012.2
20260905220949 18 31 0.0 0.0 0.00 0.00 0.00 74 1012.3
20260905220445 18 31 0.0 3.2 0.00 0.00 0.00 73 1012.1
20260905215944 19 31 1.6 3.2 0.00 0.00 0.00 72 1012.2
20260905215440 19 31 0.0 3.2 0.00 0.00 0.00 72 1012.0
20260905214936 19 38 0.0 3.2 0.00 0.00 0.00 72 1012.0
20260905214432 19 40 0.0 3.2 0.00 0.00 0.00 73 1011.7
20260905213931 20 42 1.6 3.2 0.00 0.00 0.00 71 1011.6
20260905213428 20 46 1.6 3.2 0.00 0.00 0.00 72 1011.7
20260905212923 20 40 0.0 0.0 0.00 0.00 0.00 70 1011.8
20260905212417 20 42 0.0 3.2 0.00 0.00 0.00 70 1011.6
20260905211916 20 105 0.0 0.0 0.00 0.00 0.00 72 1011.6
20260905211412 20 45 1.6 3.2 0.00 0.00 0.00 71 1011.7
20260905210909 20 48 0.0 3.2 0.00 0.00 0.00 71 1011.6
20260905210403 19 49 0.0 3.2 0.00 0.00 0.00 72 1011.4
20260905205903 19 39 0.0 3.2 0.00 0.00 0.00 71 1011.6
20260905205357 19 21 3.2 3.2 0.00 0.00 0.00 70 1011.4
20260905204856 20 23 1.6 3.2 0.00 0.00 0.00 71 1011.3
20260905204353 20 30 0.0 4.8 0.00 0.00 0.00 69 1011.4
20260905203851 20 77 0.0 0.0 0.00 0.00 0.00 70 1011.3
20260905203346 20 35 1.6 3.2 0.00 0.00 0.00 71 1011.4
20260905202837 20 80 1.6 3.2 0.00 0.00 0.00 70 1011.5
20260905202336 20 36 1.6 4.8 0.00 0.00 0.00 68 1011.3
20260905201833 20 68 0.0 3.2 0.00 0.00 0.00 68 1011.2
20260905201328 20 56 0.0 8.0 0.00 0.00 0.00 69 1011.1
20260905200822 20 96 0.0 3.2 0.00 0.00 0.00 69 1011.1
20260905200318 20 37 1.6 4.8 0.00 0.00 0.00 71 1011.1
20260905195816 20 338 3.2 3.2 0.00 0.00 0.00 72 1011.0
20260905195311 20 229 0.0 0.0 0.00 0.00 0.00 71 1011.1
20260905194807 20 73 1.6 3.2 0.00 0.00 0.00 70 1010.9
20260905194306 20 78 0.0 0.0 0.00 0.00 0.00 71 1011.0
20260905193800 20 83 0.0 0.0 0.00 0.00 0.00 70 1011.1
20260905193256 20 88 1.6 3.2 0.00 0.00 0.00 68 1011.3
20260905192751 20 47 0.0 3.2 0.00 0.00 0.00 68 1011.0
20260905192247 20 103 3.2 8.0 0.00 0.00 0.00 69 1011.0
20260905191747 20 77 3.2 4.8 0.00 0.00 0.00 69 1011.0
20260905191245 20 66 0.0 3.2 0.00 0.00 0.00 69 1010.9
20260905190743 20 352 3.2 4.8 0.00 0.00 0.00 69 1011.0
20260905190242 20 180 3.2 3.2 0.00 0.00 0.00 69 1010.9
20260905185736 21 346 3.2 4.8 0.00 0.00 0.00 68 1011.0
20260905185230 21 261 3.2 4.8 0.00 0.00 0.00 67 1011.0
20260905184724 20 303 3.2 4.8 0.00 0.00 0.00 67 1010.9
20260905184224 20 20 1.6 3.2 0.00 0.00 0.00 68 1011.0
20260905183718 20 42 0.0 3.2 0.00 0.00 0.00 69 1011.0
20260905183213 20 13 3.2 3.2 0.00 0.00 0.00 69 1011.0
20260905182712 20 78 1.6 3.2 0.00 0.00 0.00 68 1011.0
20260905182207 20 70 1.6 3.2 0.00 0.00 0.00 71 1011.2
20260905181702 20 61 0.0 3.2 0.00 0.00 0.00 71 1011.2
20260905181201 20 61 0.0 3.2 0.00 0.00 0.00 72 1011.2
20260905180655 20 97 3.2 3.2 0.00 0.00 0.00 72 1011.2
20260905180152 20 92 0.0 3.2 0.00 0.00 0.00 75 1011.2
20260905175650 20 61 1.6 4.8 0.00 0.00 0.00 74 1011.1
20260905175146 20 126 0.0 3.2 0.00 0.00 0.00 74 1011.2
20260905174641 19 88 0.0 3.2 0.00 0.00 0.00 74 1011.1
20260905174137 19 49 0.0 4.8 0.00 0.00 0.00 76 1011.1
20260905173632 18 333 1.6 4.8 0.00 0.00 0.00 76 1011.2
20260905173128 18 59 1.6 3.2 0.00 0.00 0.00 75 1011.4
20260905172627 18 132 3.2 4.8 0.00 0.00 0.00 74 1011.3
20260905172122 19 151 4.8 8.0 0.00 0.00 0.00 77 1011.1
20260905171618 19 145 1.6 3.2 0.00 0.00 0.00 76 1011.0
20260905171114 20 11 4.8 8.0 0.00 0.00 0.00 76 1011.1
20260905170610 20 285 4.8 8.0 0.00 0.00 0.00 76 1011.2
20260905170105 20 82 3.2 3.2 0.00 0.00 0.00 77 1011.1
20260905165600 18 12 4.8 4.8 0.00 0.00 0.00 81 1011.2
20260905165055 18 44 0.0 3.2 0.00 0.00 0.00 80 1011.4
20260905164549 19 45 1.6 4.8 0.00 0.00 0.00 80 1011.5
20260905164043 18 246 0.0 3.2 0.00 0.00 0.00 81 1011.3
20260905163540 18 65 0.0 3.2 0.00 0.00 0.00 82 1011.5
20260905163036 18 49 0.0 0.0 0.00 0.00 0.00 82 1011.4
20260905162533 18 2 1.6 3.2 0.00 0.00 0.00 83 1011.3
20260905162026 18 352 3.2 4.8 0.00 0.00 0.00 84 1011.4
20260905161521 18 174 4.8 4.8 0.00 0.00 0.00 84 1011.4
20260905161018 18 54 0.0 4.8 0.00 0.00 0.00 84 1011.5
20260905160512 18 6 0.0 4.8 0.00 0.00 0.00 85 1011.4
20260905160011 18 16 1.6 4.8 0.00 0.00 0.00 86 1011.2
20260905155506 18 31 1.6 3.2 0.00 0.00 0.00 85 1011.3
20260905155004 18 30 4.8 11.3 0.00 0.00 0.00 83 1011.4
20260905154500 18 77 1.6 3.2 0.00 0.00 0.00 84 1011.2
20260905153955 18 77 0.0 4.8 0.00 0.00 0.00 83 1011.1
20260905153451 19 42 0.0 4.8 0.00 0.00 0.00 82 1011.0
20260905152950 19 106 1.6 4.8 0.00 0.00 0.00 80 1011.1
20260905152445 18 53 4.8 4.8 0.00 0.00 0.00 81 1010.9
20260905151939 18 330 3.2 4.8 0.00 0.00 0.00 80 1011.1
20260905151435 19 39 1.6 4.8 0.00 0.00 0.00 80 1011.1
20260905150930 18 147 3.2 4.8 0.00 0.00 0.00 80 1011.0
20260905150430 18 353 3.2 4.8 0.00 0.00 0.00 80 1011.0
20260905145926 18 72 0.0 3.2 0.00 0.00 0.00 81 1010.9
20260905145421 18 60 1.6 4.8 0.00 0.00 0.00 80 1011.0
20260905144916 18 263 4.8 4.8 0.00 0.00 0.00 82 1010.9
20260905144411 18 79 1.6 4.8 0.00 0.00 0.00 81 1010.8
20260905143909 18 21 1.6 4.8 0.00 0.00 0.00 83 1011.1
20260905143403 18 44 0.0 4.8 0.00 0.00 0.00 82 1010.8
20260905142857 18 157 1.6 3.2 0.00 0.00 0.00 82 1011.0
20260905142355 18 238 0.0 4.8 0.00 0.00 0.00 83 1011.1
20260905141852 18 58 0.0 3.2 0.00 0.00 0.00 82 1010.7
20260905141347 18 20 4.8 8.0 0.00 0.00 0.00 83 1011.0
20260905140843 17 205 3.2 4.8 0.00 0.00 0.00 83 1010.9
20260905140343 17 61 0.0 4.8 0.00 0.00 0.00 84 1010.7
20260905135841 17 358 3.2 3.2 0.00 0.00 0.00 85 1010.6
20260905135338 17 40 1.6 3.2 0.00 0.00 0.00 86 1010.7
20260905134833 17 332 3.2 3.2 0.00 0.00 0.00 85 1010.7
20260905134326 17 269 4.8 8.0 0.00 0.00 0.00 86 1010.7
20260905133820 17 0 3.2 3.2 0.00 0.00 0.00 86 1010.6
20260905133316 17 225 1.6 4.8 0.00 0.00 0.00 86 1010.5
20260905132814 17 64 1.6 4.8 0.00 0.00 0.00 85 1010.4
20260905132311 17 19 0.0 3.2 0.00 0.00 0.00 85 1010.5
20260905131805 17 130 0.0 4.8 0.00 0.00 0.00 85 1010.2
20260905131301 17 79 0.0 8.0 0.00 0.00 0.00 85 1010.3
20260905130755 17 303 3.2 4.8 0.00 0.00 0.00 85 1010.2
20260905130254 17 333 1.6 3.2 0.00 0.00 0.00 86 1010.1
20260905125750 17 4 0.0 4.8 0.00 0.00 0.00 86 1010.0
20260905125245 17 76 0.0 3.2 0.00 0.00 0.00 86 1010.0
20260905124742 17 67 0.0 0.0 0.00 0.00 0.00 86 1010.1
20260905124237 17 50 0.0 3.2 0.00 0.00 0.00 86 1010.1
20260905123732 17 32 0.0 0.0 0.00 0.00 0.00 85 1010.0
20260905123229 17 17 3.2 4.8 0.00 0.00 0.00 86 1010.1
20260905122728 17 0 0.0 0.0 0.00 0.00 0.00 86 1010.0
20260905122223 17 0 0.0 3.2 0.00 0.00 0.00 85 1009.7
20260905121718 17 0 1.6 3.2 0.00 0.00 0.00 87 1009.8
20260905121214 17 0 0.0 0.0 0.00 0.00 0.00 87 1009.8